3 Gehege Außen am Haus Messungen

Zurück zum Überblick

Zeitpunkt Temperatur Luftfeuchte
08.12.2019 05:21:26 18,2 C 53,0%
08.12.2019 05:19:42 18,2 C 53,0%
08.12.2019 05:07:23 18,5 C 53,0%
08.12.2019 05:00:20 18,6 C 53,0%
08.12.2019 04:53:18 18,1 C 53,0%
08.12.2019 04:46:15 18,3 C 53,0%
08.12.2019 04:39:13 18,5 C 53,0%
08.12.2019 04:32:10 18,2 C 54,0%
08.12.2019 04:25:09 18,2 C 53,0%
08.12.2019 04:18:07 18,4 C 53,0%
08.12.2019 04:11:05 18,5 C 53,0%
08.12.2019 04:04:04 18,0 C 53,0%
08.12.2019 03:57:01 18,2 C 53,0%
08.12.2019 03:49:58 18,4 C 53,0%
08.12.2019 03:42:57 18,2 C 53,0%
08.12.2019 03:35:56 18,1 C 53,0%
08.12.2019 03:28:52 18,3 C 52,0%
08.12.2019 03:21:50 18,4 C 53,0%
08.12.2019 03:14:49 18,1 C 53,0%
08.12.2019 03:07:48 18,3 C 52,0%
08.12.2019 03:00:47 18,5 C 52,0%
08.12.2019 02:53:44 18,1 C 53,0%
08.12.2019 02:52:00 18,2 C 53,0%
08.12.2019 02:39:41 18,5 C 52,0%
08.12.2019 02:32:40 18,3 C 53,0%
08.12.2019 02:25:38 18,1 C 53,0%
08.12.2019 02:18:37 18,4 C 52,0%
08.12.2019 02:11:37 18,6 C 52,0%
08.12.2019 02:04:36 18,1 C 53,0%
08.12.2019 01:57:34 18,2 C 52,0%
08.12.2019 01:50:33 18,4 C 52,0%
08.12.2019 01:43:32 18,4 C 53,0%
08.12.2019 01:36:28 18,1 C 52,0%
08.12.2019 01:29:28 18,3 C 52,0%
08.12.2019 01:22:26 18,6 C 52,0%
08.12.2019 01:15:24 18,2 C 53,0%
08.12.2019 01:08:22 18,1 C 52,0%
08.12.2019 01:06:38 18,4 C 52,0%
08.12.2019 00:40:12 18,2 C 52,0%
08.12.2019 00:33:12 18,5 C 52,0%
08.12.2019 00:31:28 18,4 C 52,0%
08.12.2019 00:12:06 18,3 C 53,0%
08.12.2019 00:05:04 18,5 C 52,0%